Year,Month,Day,Hour,Minute,Value (Times are PST for temperature in C)
2012,05,06,00,00,8.10
2012,05,06,00,01,8.00
2012,05,06,00,02,8.00
2012,05,06,00,03,7.90
2012,05,06,00,04,7.90
2012,05,06,00,05,7.90
2012,05,06,00,06,7.90
2012,05,06,00,07,7.80
2012,05,06,00,08,7.80
2012,05,06,00,09,7.90
2012,05,06,00,10,7.90
2012,05,06,00,11,7.90
2012,05,06,00,12,7.90
2012,05,06,00,13,7.90
2012,05,06,00,14,7.80
2012,05,06,00,15,7.80
2012,05,06,00,16,7.70
2012,05,06,00,17,7.60
2012,05,06,00,18,7.50
2012,05,06,00,19,7.50
2012,05,06,00,20,7.40
2012,05,06,00,21,7.30
2012,05,06,00,22,7.30
2012,05,06,00,23,7.30
2012,05,06,00,24,7.20
2012,05,06,00,25,7.20
2012,05,06,00,26,7.30
2012,05,06,00,27,7.30
2012,05,06,00,28,7.30
2012,05,06,00,29,7.30
2012,05,06,00,30,7.30
2012,05,06,00,31,7.40
2012,05,06,00,32,7.40
2012,05,06,00,33,7.40
2012,05,06,00,34,7.40
2012,05,06,00,35,7.40
2012,05,06,00,36,7.40
2012,05,06,00,37,7.40
2012,05,06,00,38,7.30
2012,05,06,00,39,7.30
2012,05,06,00,40,7.20
2012,05,06,00,41,7.20
2012,05,06,00,42,7.20
2012,05,06,00,43,7.10
2012,05,06,00,44,7.10
2012,05,06,00,45,7.00
2012,05,06,00,46,7.00
2012,05,06,00,47,7.00
2012,05,06,00,48,7.00
2012,05,06,00,49,6.90
2012,05,06,00,50,6.90
2012,05,06,00,51,6.90
2012,05,06,00,52,7.00
2012,05,06,00,53,7.00
2012,05,06,00,54,7.00
2012,05,06,00,55,7.00
2012,05,06,00,56,7.00
2012,05,06,00,57,7.00
2012,05,06,00,58,7.00
2012,05,06,00,59,7.00
2012,05,06,01,00,7.00
2012,05,06,01,01,6.90
2012,05,06,01,02,6.90
2012,05,06,01,03,6.90
2012,05,06,01,04,6.90
2012,05,06,01,05,6.90
2012,05,06,01,06,6.90
2012,05,06,01,07,6.90
2012,05,06,01,08,6.90
2012,05,06,01,09,6.90
2012,05,06,01,10,6.90
2012,05,06,01,11,6.90
2012,05,06,01,12,6.80
2012,05,06,01,13,6.80
2012,05,06,01,14,6.80
2012,05,06,01,15,6.80
2012,05,06,01,16,6.80
2012,05,06,01,17,6.80
2012,05,06,01,18,6.80
2012,05,06,01,19,6.80
2012,05,06,01,20,6.80
2012,05,06,01,21,6.80
2012,05,06,01,22,6.80
2012,05,06,01,23,6.80
2012,05,06,01,24,6.80
2012,05,06,01,25,6.80
2012,05,06,01,26,6.80
2012,05,06,01,27,6.80
2012,05,06,01,28,6.80
2012,05,06,01,29,6.80
2012,05,06,01,30,6.70
2012,05,06,01,31,6.70
2012,05,06,01,32,6.70
2012,05,06,01,33,6.70
2012,05,06,01,34,6.60
2012,05,06,01,35,6.60
2012,05,06,01,36,6.60
2012,05,06,01,37,6.50
2012,05,06,01,38,6.50
2012,05,06,01,39,6.50
2012,05,06,01,40,6.40
2012,05,06,01,41,6.40
2012,05,06,01,42,6.40
2012,05,06,01,43,6.40
2012,05,06,01,44,6.40
2012,05,06,01,45,6.40
2012,05,06,01,46,6.40
2012,05,06,01,47,6.40
2012,05,06,01,48,6.40
2012,05,06,01,49,6.40
2012,05,06,01,50,6.40
2012,05,06,01,51,6.30
2012,05,06,01,52,6.30
2012,05,06,01,53,6.30
2012,05,06,01,54,6.30
2012,05,06,01,55,6.30
2012,05,06,01,56,6.30
2012,05,06,01,57,6.30
2012,05,06,01,58,6.30
2012,05,06,01,59,6.30
2012,05,06,02,00,6.30
2012,05,06,02,01,6.30
2012,05,06,02,02,6.30
2012,05,06,02,03,6.30
2012,05,06,02,04,6.30
2012,05,06,02,05,6.30
2012,05,06,02,06,6.30
2012,05,06,02,07,6.30
2012,05,06,02,08,6.30
2012,05,06,02,09,6.30
2012,05,06,02,10,6.30
2012,05,06,02,11,6.30
2012,05,06,02,12,6.30
2012,05,06,02,13,6.30
2012,05,06,02,14,6.30
2012,05,06,02,15,6.30
2012,05,06,02,16,6.30
2012,05,06,02,17,6.30
2012,05,06,02,18,6.30
2012,05,06,02,19,6.30
2012,05,06,02,20,6.30
2012,05,06,02,21,6.40
2012,05,06,02,22,6.40
2012,05,06,02,23,6.40
2012,05,06,02,24,6.40
2012,05,06,02,25,6.40
2012,05,06,02,26,6.40
2012,05,06,02,27,6.50
2012,05,06,02,28,6.40
2012,05,06,02,29,6.40
2012,05,06,02,30,6.40
2012,05,06,02,31,6.40
2012,05,06,02,32,6.40
2012,05,06,02,33,6.40
2012,05,06,02,34,6.50
2012,05,06,02,35,6.50
2012,05,06,02,36,6.50
2012,05,06,02,37,6.50
2012,05,06,02,38,6.40
2012,05,06,02,39,6.40
2012,05,06,02,40,6.40
2012,05,06,02,41,6.40
2012,05,06,02,42,6.40
2012,05,06,02,43,6.40
2012,05,06,02,44,6.40
2012,05,06,02,45,6.40
2012,05,06,02,46,6.40
2012,05,06,02,47,6.40
2012,05,06,02,48,6.30
2012,05,06,02,49,6.30
2012,05,06,02,50,6.30
2012,05,06,02,51,6.30
2012,05,06,02,52,6.30
2012,05,06,02,53,6.20
2012,05,06,02,54,6.20
2012,05,06,02,55,6.20
2012,05,06,02,56,6.20
2012,05,06,02,57,6.20
2012,05,06,02,58,6.20
2012,05,06,02,59,6.20
2012,05,06,03,00,6.20
2012,05,06,03,01,6.20
2012,05,06,03,02,6.20
2012,05,06,03,03,6.20
2012,05,06,03,04,6.20
2012,05,06,03,05,6.20
2012,05,06,03,06,6.20
2012,05,06,03,07,6.20
2012,05,06,03,08,6.20
2012,05,06,03,09,6.20
2012,05,06,03,10,6.20
2012,05,06,03,11,6.20
2012,05,06,03,12,6.20
2012,05,06,03,13,6.20
2012,05,06,03,14,6.20
2012,05,06,03,15,6.20
2012,05,06,03,16,6.20
2012,05,06,03,17,6.20
2012,05,06,03,18,6.20
2012,05,06,03,19,6.30
2012,05,06,03,20,6.30
2012,05,06,03,21,6.30
2012,05,06,03,22,6.30
2012,05,06,03,23,6.30
2012,05,06,03,24,6.30
2012,05,06,03,25,6.30
2012,05,06,03,26,6.30
2012,05,06,03,27,6.30
2012,05,06,03,28,6.30
2012,05,06,03,29,6.40
2012,05,06,03,30,6.30
2012,05,06,03,31,6.30
2012,05,06,03,32,6.30
2012,05,06,03,33,6.30
2012,05,06,03,34,6.30
2012,05,06,03,35,6.30
2012,05,06,03,36,6.30
2012,05,06,03,37,6.30
2012,05,06,03,38,6.30
2012,05,06,03,39,6.30
2012,05,06,03,40,6.30
2012,05,06,03,41,6.30
2012,05,06,03,42,6.30
2012,05,06,03,43,6.20
2012,05,06,03,44,6.20
2012,05,06,03,45,6.20
2012,05,06,03,46,6.20
2012,05,06,03,47,6.20
2012,05,06,03,48,6.30
2012,05,06,03,49,6.30
2012,05,06,03,50,6.30
2012,05,06,03,51,6.30
2012,05,06,03,52,6.30
2012,05,06,03,53,6.30
2012,05,06,03,54,6.30
2012,05,06,03,55,6.30
2012,05,06,03,56,6.30
2012,05,06,03,57,6.30
2012,05,06,03,58,6.30
2012,05,06,03,59,6.30
2012,05,06,04,00,6.30
2012,05,06,04,01,6.30
2012,05,06,04,02,6.30
2012,05,06,04,03,6.30
2012,05,06,04,04,6.30
2012,05,06,04,05,6.20
2012,05,06,04,06,6.20
2012,05,06,04,07,6.20
2012,05,06,04,08,6.20
2012,05,06,04,09,6.20
2012,05,06,04,10,6.20
2012,05,06,04,11,6.20
2012,05,06,04,12,6.20
2012,05,06,04,13,6.20
2012,05,06,04,14,6.20
2012,05,06,04,15,6.20
2012,05,06,04,16,6.10
2012,05,06,04,17,6.10
2012,05,06,04,18,6.10
2012,05,06,04,19,6.10
2012,05,06,04,20,6.10
2012,05,06,04,21,6.10
2012,05,06,04,22,6.10
2012,05,06,04,23,6.00
2012,05,06,04,24,6.00
2012,05,06,04,25,6.00
2012,05,06,04,26,6.00
2012,05,06,04,27,6.00
2012,05,06,04,28,5.90
2012,05,06,04,29,5.90
2012,05,06,04,30,5.90
2012,05,06,04,31,5.90
2012,05,06,04,32,5.90
2012,05,06,04,33,5.90
2012,05,06,04,34,6.00
2012,05,06,04,35,6.00
2012,05,06,04,36,6.00
2012,05,06,04,37,6.00
2012,05,06,04,38,6.00
2012,05,06,04,39,6.10
2012,05,06,04,40,6.10
2012,05,06,04,41,6.10
2012,05,06,04,42,6.10
2012,05,06,04,43,6.10
2012,05,06,04,44,6.10
2012,05,06,04,45,6.10
2012,05,06,04,46,6.10
2012,05,06,04,47,6.10
2012,05,06,04,48,6.10
2012,05,06,04,49,6.00
2012,05,06,04,50,6.00
2012,05,06,04,51,6.00
2012,05,06,04,52,6.00
2012,05,06,04,53,6.00
2012,05,06,04,54,6.00
2012,05,06,04,55,6.00
2012,05,06,04,56,6.00
2012,05,06,04,57,6.00
2012,05,06,04,58,6.00
2012,05,06,04,59,6.10
2012,05,06,05,00,6.00
2012,05,06,05,01,6.00
2012,05,06,05,02,6.10
2012,05,06,05,03,6.10
2012,05,06,05,04,6.10
2012,05,06,05,05,6.10
2012,05,06,05,06,6.10
2012,05,06,05,07,6.10
2012,05,06,05,08,6.10
2012,05,06,05,09,6.10
2012,05,06,05,10,6.10
2012,05,06,05,11,6.10
2012,05,06,05,12,6.20
2012,05,06,05,13,6.20
2012,05,06,05,14,6.20
2012,05,06,05,15,6.20
2012,05,06,05,16,6.20
2012,05,06,05,17,6.20
2012,05,06,05,18,6.20
2012,05,06,05,19,6.20
2012,05,06,05,20,6.20
2012,05,06,05,21,6.20
2012,05,06,05,22,6.30
2012,05,06,05,23,6.30
2012,05,06,05,24,6.20
2012,05,06,05,25,6.20
2012,05,06,05,26,6.30
2012,05,06,05,27,6.30
2012,05,06,05,28,6.30
2012,05,06,05,29,6.30
2012,05,06,05,30,6.30
2012,05,06,05,31,6.30
2012,05,06,05,32,6.30
2012,05,06,05,33,6.30
2012,05,06,05,34,6.30
2012,05,06,05,35,6.30
2012,05,06,05,36,6.30
2012,05,06,05,37,6.30
2012,05,06,05,38,6.30
2012,05,06,05,39,6.30
2012,05,06,05,40,6.30
2012,05,06,05,41,6.30
2012,05,06,05,42,6.30
2012,05,06,05,43,6.40
2012,05,06,05,44,6.40
2012,05,06,05,45,6.40
2012,05,06,05,46,6.40
2012,05,06,05,47,6.40
2012,05,06,05,48,6.40
2012,05,06,05,49,6.40
2012,05,06,05,50,6.40
2012,05,06,05,51,6.40
2012,05,06,05,52,6.30
2012,05,06,05,53,6.30
2012,05,06,05,54,6.30
2012,05,06,05,55,6.30
2012,05,06,05,56,6.30
2012,05,06,05,57,6.30
2012,05,06,05,58,6.30
2012,05,06,05,59,6.30
2012,05,06,06,00,6.30
2012,05,06,06,01,6.30
2012,05,06,06,02,6.30
2012,05,06,06,03,6.30
2012,05,06,06,04,6.30
2012,05,06,06,05,6.30
2012,05,06,06,06,6.30
2012,05,06,06,07,6.30
2012,05,06,06,08,6.30
2012,05,06,06,09,6.30
2012,05,06,06,10,6.30
2012,05,06,06,11,6.30
2012,05,06,06,12,6.30
2012,05,06,06,13,6.30
2012,05,06,06,14,6.30
2012,05,06,06,15,6.30
2012,05,06,06,16,6.30
2012,05,06,06,17,6.30
2012,05,06,06,18,6.30
2012,05,06,06,19,6.30
2012,05,06,06,20,6.30
2012,05,06,06,21,6.30
2012,05,06,06,22,6.30
2012,05,06,06,23,6.30
2012,05,06,06,24,6.30
2012,05,06,06,25,6.30
2012,05,06,06,26,6.30
2012,05,06,06,27,6.30
2012,05,06,06,28,6.30
2012,05,06,06,29,6.30
2012,05,06,06,30,6.30
2012,05,06,06,31,6.30
2012,05,06,06,32,6.30
2012,05,06,06,33,6.30
2012,05,06,06,34,6.30
2012,05,06,06,35,6.30
2012,05,06,06,36,6.40
2012,05,06,06,37,6.40
2012,05,06,06,38,6.40
2012,05,06,06,39,6.40
2012,05,06,06,40,6.40
2012,05,06,06,41,6.40
2012,05,06,06,42,6.40
2012,05,06,06,43,6.40
2012,05,06,06,44,6.40
2012,05,06,06,45,6.40
2012,05,06,06,46,6.40
2012,05,06,06,47,6.50
2012,05,06,06,48,6.50
2012,05,06,06,49,6.50
2012,05,06,06,50,6.50
2012,05,06,06,51,6.50
2012,05,06,06,52,6.60
2012,05,06,06,53,6.60
2012,05,06,06,54,6.60
2012,05,06,06,55,6.60
2012,05,06,06,56,6.60
2012,05,06,06,57,6.70
2012,05,06,06,58,6.70
2012,05,06,06,59,6.70
2012,05,06,07,00,6.70
2012,05,06,07,01,6.80
2012,05,06,07,02,6.80
2012,05,06,07,03,6.90
2012,05,06,07,04,6.90
2012,05,06,07,05,7.00
2012,05,06,07,06,7.00
2012,05,06,07,07,7.10
2012,05,06,07,08,7.10
2012,05,06,07,09,7.20
2012,05,06,07,10,7.20
2012,05,06,07,11,7.20
2012,05,06,07,12,7.30
2012,05,06,07,13,7.30
2012,05,06,07,14,7.40
2012,05,06,07,15,7.50
2012,05,06,07,16,7.60
2012,05,06,07,17,7.70
2012,05,06,07,18,7.70
2012,05,06,07,19,7.70
2012,05,06,07,20,7.80
2012,05,06,07,21,7.80
2012,05,06,07,22,7.90
2012,05,06,07,23,7.90
2012,05,06,07,24,7.90
2012,05,06,07,25,7.90
2012,05,06,07,26,7.90
2012,05,06,07,27,7.90
2012,05,06,07,28,8.00
2012,05,06,07,29,8.00
2012,05,06,07,30,8.10
2012,05,06,07,31,8.10
2012,05,06,07,32,8.10
2012,05,06,07,33,8.10
2012,05,06,07,34,8.10
2012,05,06,07,35,8.20
2012,05,06,07,36,8.20
2012,05,06,07,37,8.20
2012,05,06,07,38,8.30
2012,05,06,07,39,8.30
2012,05,06,07,40,8.30
2012,05,06,07,41,8.30
2012,05,06,07,42,8.40
2012,05,06,07,43,8.40
2012,05,06,07,44,8.40
2012,05,06,07,45,8.40
2012,05,06,07,46,8.50
2012,05,06,07,47,8.50
2012,05,06,07,48,8.50
2012,05,06,07,49,8.60
2012,05,06,07,50,8.60
2012,05,06,07,51,8.70
2012,05,06,07,52,8.70
2012,05,06,07,53,8.70
2012,05,06,07,54,8.80
2012,05,06,07,55,8.80
2012,05,06,07,56,8.90
2012,05,06,07,57,8.90
2012,05,06,07,58,9.00
2012,05,06,07,59,9.00
2012,05,06,08,00,9.00
2012,05,06,08,01,9.10
2012,05,06,08,02,9.10
2012,05,06,08,03,9.20
2012,05,06,08,04,9.30
2012,05,06,08,05,9.30
2012,05,06,08,06,9.40
2012,05,06,08,07,9.40
2012,05,06,08,08,9.50
2012,05,06,08,09,9.60
2012,05,06,08,10,9.60
2012,05,06,08,11,9.60
2012,05,06,08,12,9.70
2012,05,06,08,13,9.70
2012,05,06,08,14,9.60
2012,05,06,08,15,9.60
2012,05,06,08,16,9.60
2012,05,06,08,17,9.60
2012,05,06,08,18,9.60
2012,05,06,08,19,9.60
2012,05,06,08,20,9.70
2012,05,06,08,21,9.70
2012,05,06,08,22,9.70
2012,05,06,08,23,9.70
2012,05,06,08,24,9.70
2012,05,06,08,25,9.70
2012,05,06,08,26,9.70
2012,05,06,08,27,9.70
2012,05,06,08,28,9.70
2012,05,06,08,29,9.70
2012,05,06,08,30,9.70
2012,05,06,08,31,9.70
2012,05,06,08,32,9.70
2012,05,06,08,33,9.70
2012,05,06,08,34,9.70
2012,05,06,08,35,9.80
2012,05,06,08,36,9.80
2012,05,06,08,37,9.80
2012,05,06,08,38,9.80
2012,05,06,08,39,9.90
2012,05,06,08,40,9.90
2012,05,06,08,41,10.00
2012,05,06,08,42,10.00
2012,05,06,08,43,10.10
2012,05,06,08,44,10.20
2012,05,06,08,45,10.20
2012,05,06,08,46,10.20
2012,05,06,08,47,10.20
2012,05,06,08,48,10.20
2012,05,06,08,49,10.30
2012,05,06,08,50,10.30
2012,05,06,08,51,10.30
2012,05,06,08,52,10.20
2012,05,06,08,53,10.10
2012,05,06,08,54,10.10
2012,05,06,08,55,10.00
2012,05,06,08,56,10.00
2012,05,06,08,57,10.00
2012,05,06,08,58,9.90
2012,05,06,08,59,10.00
2012,05,06,09,00,10.00
2012,05,06,09,01,10.10
2012,05,06,09,02,10.20
2012,05,06,09,03,10.20
2012,05,06,09,04,10.30
2012,05,06,09,05,10.30
2012,05,06,09,06,10.40
2012,05,06,09,07,10.40
2012,05,06,09,08,10.50
2012,05,06,09,09,10.50
2012,05,06,09,10,10.50
2012,05,06,09,11,10.60
2012,05,06,09,12,10.60
2012,05,06,09,13,10.60
2012,05,06,09,14,10.60
2012,05,06,09,15,10.70
2012,05,06,09,16,10.70
2012,05,06,09,17,10.80
2012,05,06,09,18,10.80
2012,05,06,09,19,10.90
2012,05,06,09,20,11.00
2012,05,06,09,21,11.00
2012,05,06,09,22,11.10
2012,05,06,09,23,11.10
2012,05,06,09,24,11.20
2012,05,06,09,25,11.20
2012,05,06,09,26,11.20
2012,05,06,09,27,11.20
2012,05,06,09,28,11.20
2012,05,06,09,29,11.20
2012,05,06,09,30,11.30
2012,05,06,09,31,11.30
2012,05,06,09,32,11.30
2012,05,06,09,33,11.40
2012,05,06,09,34,11.40
2012,05,06,09,35,11.40
2012,05,06,09,36,11.40
2012,05,06,09,37,11.40
2012,05,06,09,38,11.40
2012,05,06,09,39,11.50
2012,05,06,09,40,11.50
2012,05,06,09,41,11.40
2012,05,06,09,42,11.40
2012,05,06,09,43,11.30
2012,05,06,09,44,11.10
2012,05,06,09,45,11.00
2012,05,06,09,46,10.90
2012,05,06,09,47,10.90
2012,05,06,09,48,10.90
2012,05,06,09,49,10.90
2012,05,06,09,50,11.00
2012,05,06,09,51,11.00
2012,05,06,09,52,11.10
2012,05,06,09,53,11.20
2012,05,06,09,54,11.30
2012,05,06,09,55,11.30
2012,05,06,09,56,11.40
2012,05,06,09,57,11.40
2012,05,06,09,58,11.20
2012,05,06,09,59,10.90
2012,05,06,10,00,10.70
2012,05,06,10,01,10.70
2012,05,06,10,02,10.50
2012,05,06,10,03,10.30
2012,05,06,10,04,10.20
2012,05,06,10,05,10.10
2012,05,06,10,06,10.20
2012,05,06,10,07,10.20
2012,05,06,10,08,10.30
2012,05,06,10,09,10.40
2012,05,06,10,10,10.30
2012,05,06,10,11,10.40
2012,05,06,10,12,10.40
2012,05,06,10,13,10.40
2012,05,06,10,14,10.50
2012,05,06,10,15,10.60
2012,05,06,10,16,10.70
2012,05,06,10,17,10.80
2012,05,06,10,18,10.90
2012,05,06,10,19,10.90
2012,05,06,10,20,11.00
2012,05,06,10,21,11.10
2012,05,06,10,22,11.20
2012,05,06,10,23,11.20
2012,05,06,10,24,11.30
2012,05,06,10,25,11.30
2012,05,06,10,26,11.20
2012,05,06,10,27,11.20
2012,05,06,10,28,11.30
2012,05,06,10,29,11.30
2012,05,06,10,30,11.40
2012,05,06,10,31,11.40
2012,05,06,10,32,11.40
2012,05,06,10,33,11.40
2012,05,06,10,34,11.50
2012,05,06,10,35,11.60
2012,05,06,10,36,11.60
2012,05,06,10,37,11.70
2012,05,06,10,38,11.70
2012,05,06,10,39,11.70
2012,05,06,10,40,11.80
2012,05,06,10,41,11.80
2012,05,06,10,42,11.90
2012,05,06,10,43,12.00
2012,05,06,10,44,12.00
2012,05,06,10,45,12.10
2012,05,06,10,46,12.10
2012,05,06,10,47,12.20
2012,05,06,10,48,12.30
2012,05,06,10,49,12.30
2012,05,06,10,50,12.40
2012,05,06,10,51,12.40
2012,05,06,10,52,12.40
2012,05,06,10,53,12.50
2012,05,06,10,54,12.50
2012,05,06,10,55,12.60
2012,05,06,10,56,12.60
2012,05,06,10,57,12.60
2012,05,06,10,58,12.70
2012,05,06,10,59,12.70
2012,05,06,11,00,12.70
2012,05,06,11,01,12.80
2012,05,06,11,02,12.80
2012,05,06,11,03,12.80
2012,05,06,11,04,12.80
2012,05,06,11,05,12.70
2012,05,06,11,06,12.70
2012,05,06,11,07,12.70
2012,05,06,11,08,12.70
2012,05,06,11,09,12.60
2012,05,06,11,10,12.60
2012,05,06,11,11,12.60
2012,05,06,11,12,12.50
2012,05,06,11,13,12.60
2012,05,06,11,14,12.60
2012,05,06,11,15,12.60
2012,05,06,11,16,12.70
2012,05,06,11,17,12.70
2012,05,06,11,18,12.70
2012,05,06,11,19,12.70
2012,05,06,11,20,12.80
2012,05,06,11,21,12.80
2012,05,06,11,22,12.80
2012,05,06,11,23,12.90
2012,05,06,11,24,12.90
2012,05,06,11,25,12.80
2012,05,06,11,26,12.80
2012,05,06,11,27,12.70
2012,05,06,11,28,12.70
2012,05,06,11,29,12.70
2012,05,06,11,30,12.70
2012,05,06,11,31,12.80
2012,05,06,11,32,12.80
2012,05,06,11,33,12.80
2012,05,06,11,34,12.80
2012,05,06,11,35,12.80
2012,05,06,11,36,12.90
2012,05,06,11,37,12.90
2012,05,06,11,38,12.80
2012,05,06,11,39,12.70
2012,05,06,11,40,12.60
2012,05,06,11,41,12.60
2012,05,06,11,42,12.60
2012,05,06,11,43,12.60
2012,05,06,11,44,12.60
2012,05,06,11,45,12.60
2012,05,06,11,46,12.60
2012,05,06,11,47,12.60
2012,05,06,11,48,12.60
2012,05,06,11,49,12.50
2012,05,06,11,50,12.40
2012,05,06,11,51,12.40
2012,05,06,11,52,12.40
2012,05,06,11,53,12.50
2012,05,06,11,54,12.50
2012,05,06,11,55,12.60
2012,05,06,11,56,12.60
2012,05,06,11,57,12.60
2012,05,06,11,58,12.60
2012,05,06,11,59,12.70
2012,05,06,12,00,12.80
2012,05,06,12,01,12.80
2012,05,06,12,02,12.80
2012,05,06,12,03,12.80
2012,05,06,12,04,12.70
2012,05,06,12,05,12.70
2012,05,06,12,06,12.50
2012,05,06,12,07,12.40
2012,05,06,12,08,12.40
2012,05,06,12,09,12.40
2012,05,06,12,10,12.50
2012,05,06,12,11,12.50
2012,05,06,12,12,12.60
2012,05,06,12,13,12.70
2012,05,06,12,14,12.80
2012,05,06,12,15,12.90
2012,05,06,12,16,13.10
2012,05,06,12,17,13.10
2012,05,06,12,18,13.10
2012,05,06,12,19,13.20
2012,05,06,12,20,13.20
2012,05,06,12,21,13.30
2012,05,06,12,22,13.40
2012,05,06,12,23,13.30
2012,05,06,12,24,13.20
2012,05,06,12,25,13.20
2012,05,06,12,26,13.20
2012,05,06,12,27,13.30
2012,05,06,12,28,13.40
2012,05,06,12,29,13.50
2012,05,06,12,30,13.50
2012,05,06,12,31,13.60
2012,05,06,12,32,13.60
2012,05,06,12,33,13.70
2012,05,06,12,34,13.70
2012,05,06,12,35,13.60
2012,05,06,12,36,13.50
2012,05,06,12,37,13.50
2012,05,06,12,38,13.40
2012,05,06,12,39,13.20
2012,05,06,12,40,13.00
2012,05,06,12,41,12.80
2012,05,06,12,42,12.60
2012,05,06,12,43,12.50
2012,05,06,12,44,12.30
2012,05,06,12,45,12.40
2012,05,06,12,46,12.40
2012,05,06,12,47,12.40
2012,05,06,12,48,12.50
2012,05,06,12,49,12.50
2012,05,06,12,50,12.60
2012,05,06,12,51,12.70
2012,05,06,12,52,12.80
2012,05,06,12,53,12.90
2012,05,06,12,54,13.10
2012,05,06,12,55,13.20
2012,05,06,12,56,13.10
2012,05,06,12,57,13.20
2012,05,06,12,58,13.20
2012,05,06,12,59,13.20
2012,05,06,13,00,13.20
2012,05,06,13,01,13.20
2012,05,06,13,02,13.30
2012,05,06,13,03,13.30
2012,05,06,13,04,13.50
2012,05,06,13,05,13.60
2012,05,06,13,06,13.60
2012,05,06,13,07,13.80
2012,05,06,13,08,13.90
2012,05,06,13,09,13.80
2012,05,06,13,10,13.80
2012,05,06,13,11,13.80
2012,05,06,13,12,13.80
2012,05,06,13,13,13.80
2012,05,06,13,14,13.90
2012,05,06,13,15,13.90
2012,05,06,13,16,13.90
2012,05,06,13,17,13.90
2012,05,06,13,18,13.90
2012,05,06,13,19,13.90
2012,05,06,13,20,13.90
2012,05,06,13,21,14.00
2012,05,06,13,22,14.00
2012,05,06,13,23,14.00
2012,05,06,13,24,14.10
2012,05,06,13,25,14.20
2012,05,06,13,26,14.30
2012,05,06,13,27,14.30
2012,05,06,13,28,14.30
2012,05,06,13,29,14.30
2012,05,06,13,30,14.30
2012,05,06,13,31,14.30
2012,05,06,13,32,14.20
2012,05,06,13,33,14.10
2012,05,06,13,34,14.20
2012,05,06,13,35,14.20
2012,05,06,13,36,14.20
2012,05,06,13,37,14.20
2012,05,06,13,38,14.10
2012,05,06,13,39,14.00
2012,05,06,13,40,13.90
2012,05,06,13,41,13.90
2012,05,06,13,42,13.90
2012,05,06,13,43,14.00
2012,05,06,13,44,14.00
2012,05,06,13,45,14.10
2012,05,06,13,46,14.10
2012,05,06,13,47,14.10
2012,05,06,13,48,14.20
2012,05,06,13,49,14.10
2012,05,06,13,50,14.00
2012,05,06,13,51,14.00
2012,05,06,13,52,13.90
2012,05,06,13,53,13.90
2012,05,06,13,54,14.00
2012,05,06,13,55,14.00
2012,05,06,13,56,14.10
2012,05,06,13,57,14.10
2012,05,06,13,58,14.10
2012,05,06,13,59,14.20
2012,05,06,14,00,14.30
2012,05,06,14,01,14.30
2012,05,06,14,02,14.30
2012,05,06,14,03,14.20
2012,05,06,14,04,14.20
2012,05,06,14,05,14.10
2012,05,06,14,06,14.00
2012,05,06,14,07,13.90
2012,05,06,14,08,13.90
2012,05,06,14,09,13.90
2012,05,06,14,10,14.00
2012,05,06,14,11,14.10
2012,05,06,14,12,14.10
2012,05,06,14,13,14.20
2012,05,06,14,14,14.20
2012,05,06,14,15,14.20
2012,05,06,14,16,14.30
2012,05,06,14,17,14.30
2012,05,06,14,18,14.30
2012,05,06,14,19,14.40
2012,05,06,14,20,14.40
2012,05,06,14,21,14.40
2012,05,06,14,22,14.30
2012,05,06,14,23,14.20
2012,05,06,14,24,14.20
2012,05,06,14,25,14.10
2012,05,06,14,26,14.20
2012,05,06,14,27,14.20
2012,05,06,14,28,14.20
2012,05,06,14,29,14.20
2012,05,06,14,30,14.20
2012,05,06,14,31,14.20
2012,05,06,14,32,14.30
2012,05,06,14,33,14.40
2012,05,06,14,34,14.50
2012,05,06,14,35,14.60
2012,05,06,14,36,14.60
2012,05,06,14,37,14.60
2012,05,06,14,38,14.70
2012,05,06,14,39,14.70
2012,05,06,14,40,14.80
2012,05,06,14,41,14.80
2012,05,06,14,42,14.80
2012,05,06,14,43,14.70
2012,05,06,14,44,14.70
2012,05,06,14,45,14.60
2012,05,06,14,46,14.60
2012,05,06,14,47,14.70
2012,05,06,14,48,14.70
2012,05,06,14,49,14.70
2012,05,06,14,50,14.70
2012,05,06,14,51,14.70
2012,05,06,14,52,14.70
2012,05,06,14,53,14.70
2012,05,06,14,54,14.70
2012,05,06,14,55,14.70
2012,05,06,14,56,14.60
2012,05,06,14,57,14.60
2012,05,06,14,58,14.60
2012,05,06,14,59,14.60
2012,05,06,15,00,14.60
2012,05,06,15,01,14.60
2012,05,06,15,02,14.60
2012,05,06,15,03,14.60
2012,05,06,15,04,14.60
2012,05,06,15,05,14.60
2012,05,06,15,06,14.60
2012,05,06,15,07,14.60
2012,05,06,15,08,14.60
2012,05,06,15,09,14.60
2012,05,06,15,10,14.70
2012,05,06,15,11,14.70
2012,05,06,15,12,14.80
2012,05,06,15,13,14.80
2012,05,06,15,14,14.80
2012,05,06,15,15,14.80
2012,05,06,15,16,14.80
2012,05,06,15,17,14.80
2012,05,06,15,18,14.70
2012,05,06,15,19,14.70
2012,05,06,15,20,14.70
2012,05,06,15,21,14.70
2012,05,06,15,22,14.70
2012,05,06,15,23,14.60
2012,05,06,15,24,14.70
2012,05,06,15,25,14.70
2012,05,06,15,26,14.80
2012,05,06,15,27,14.90
2012,05,06,15,28,15.00
2012,05,06,15,29,15.00
2012,05,06,15,30,15.00
2012,05,06,15,31,15.00
2012,05,06,15,32,15.00
2012,05,06,15,33,15.00
2012,05,06,15,34,15.00
2012,05,06,15,35,15.00
2012,05,06,15,36,15.10
2012,05,06,15,37,15.00
2012,05,06,15,38,15.00
2012,05,06,15,39,15.10
2012,05,06,15,40,15.10
2012,05,06,15,41,15.20
2012,05,06,15,42,15.20
2012,05,06,15,43,15.20
2012,05,06,15,44,15.20
2012,05,06,15,45,15.20
2012,05,06,15,46,15.20
2012,05,06,15,47,15.20
2012,05,06,15,48,15.10
2012,05,06,15,49,15.10
2012,05,06,15,50,15.10
2012,05,06,15,51,15.10
2012,05,06,15,52,15.10
2012,05,06,15,53,15.10
2012,05,06,15,54,15.10
2012,05,06,15,55,15.10
2012,05,06,15,56,15.00
2012,05,06,15,57,15.00
2012,05,06,15,58,15.00
2012,05,06,15,59,15.00
2012,05,06,16,00,15.10
2012,05,06,16,01,15.20
2012,05,06,16,02,15.20
2012,05,06,16,03,15.30
2012,05,06,16,04,15.20
2012,05,06,16,05,15.20
2012,05,06,16,06,15.10
2012,05,06,16,07,15.00
2012,05,06,16,08,15.00
2012,05,06,16,09,15.00
2012,05,06,16,10,14.90
2012,05,06,16,11,14.80
2012,05,06,16,12,14.80
2012,05,06,16,13,14.80
2012,05,06,16,14,14.80
2012,05,06,16,15,14.90
2012,05,06,16,16,14.90
2012,05,06,16,17,15.00
2012,05,06,16,18,15.00
2012,05,06,16,19,15.00
2012,05,06,16,20,15.00
2012,05,06,16,21,15.00
2012,05,06,16,22,15.20
2012,05,06,16,23,15.30
2012,05,06,16,24,15.40
2012,05,06,16,25,15.50
2012,05,06,16,26,15.50
2012,05,06,16,27,15.60
2012,05,06,16,28,15.70
2012,05,06,16,29,15.70
2012,05,06,16,30,15.70
2012,05,06,16,31,15.70
2012,05,06,16,32,15.70
2012,05,06,16,33,15.70
2012,05,06,16,34,15.70
2012,05,06,16,35,15.70
2012,05,06,16,36,15.70
2012,05,06,16,37,15.70
2012,05,06,16,38,15.80
2012,05,06,16,39,15.80
2012,05,06,16,40,15.90
2012,05,06,16,41,15.90
2012,05,06,16,42,15.90
2012,05,06,16,43,15.90
2012,05,06,16,44,15.80
2012,05,06,16,45,15.80
2012,05,06,16,46,15.80
2012,05,06,16,47,15.80
2012,05,06,16,48,15.80
2012,05,06,16,49,15.80
2012,05,06,16,50,15.80
2012,05,06,16,51,15.80
2012,05,06,16,52,15.80
2012,05,06,16,53,15.80
2012,05,06,16,54,15.80
2012,05,06,16,55,15.80
2012,05,06,16,56,15.80
2012,05,06,16,57,15.90
2012,05,06,16,58,15.90
2012,05,06,16,59,15.90
2012,05,06,17,00,15.90
2012,05,06,17,01,16.00
2012,05,06,17,02,16.10
2012,05,06,17,03,16.10
2012,05,06,17,04,16.10
2012,05,06,17,05,16.10
2012,05,06,17,06,16.10
2012,05,06,17,07,16.00
2012,05,06,17,08,16.10
2012,05,06,17,09,16.10
2012,05,06,17,10,16.10
2012,05,06,17,11,16.10
2012,05,06,17,12,16.10
2012,05,06,17,13,16.10
2012,05,06,17,14,16.10
2012,05,06,17,15,16.10
2012,05,06,17,16,16.10
2012,05,06,17,17,16.10
2012,05,06,17,18,16.10
2012,05,06,17,19,16.10
2012,05,06,17,20,16.10
2012,05,06,17,21,16.10
2012,05,06,17,22,16.10
2012,05,06,17,23,16.10
2012,05,06,17,24,16.10
2012,05,06,17,25,16.10
2012,05,06,17,26,16.10
2012,05,06,17,27,16.10
2012,05,06,17,28,16.20
2012,05,06,17,29,16.30
2012,05,06,17,30,16.30
2012,05,06,17,31,16.40
2012,05,06,17,32,16.40
2012,05,06,17,33,16.40
2012,05,06,17,34,16.40
2012,05,06,17,35,16.40
2012,05,06,17,36,16.40
2012,05,06,17,37,16.50
2012,05,06,17,38,16.50
2012,05,06,17,39,16.50
2012,05,06,17,40,16.60
2012,05,06,17,41,16.60
2012,05,06,17,42,16.70